| time (UTC) | temp C | wind direction | speed KPH | gust KPH | rain 1hr cm | rain 24hr cm | rain mn cm | humidity % | barometer mb |
| 20260508040040 | 3 | 200 | 0.0 | 0.0 | 0.00 | 0.00 | 0.00 | 86 | 1013.3 |
| 20260508034540 | 3 | 194 | 0.0 | 0.0 | 0.00 | 0.00 | 0.00 | 85 | 1013.1 |
| 20260508033041 | 3 | 251 | 0.0 | 0.0 | 0.00 | 0.00 | 0.00 | 83 | 1013.2 |
| 20260508031550 | 4 | 251 | 0.0 | 0.0 | 0.00 | 0.00 | 0.00 | 80 | 1013.2 |
| 20260508030049 | 4 | 251 | 0.0 | 0.0 | 0.00 | 0.00 | 0.00 | 80 | 1013.3 |
| 20260508024538 | 4 | 256 | 0.0 | 0.0 | 0.00 | 0.00 | 0.00 | 79 | 1013.4 |
| 20260508023043 | 5 | 262 | 0.0 | 0.0 | 0.00 | 0.00 | 0.00 | 78 | 1013.2 |
| 20260508021538 | 5 | 262 | 0.0 | 0.0 | 0.00 | 0.00 | 0.00 | 75 | 1013.2 |
| 20260508020038 | 6 | 262 | 0.0 | 0.0 | 0.00 | 0.00 | 0.00 | 72 | 1013.2 |
| 20260508014536 | 6 | 262 | 0.0 | 0.0 | 0.00 | 0.00 | 0.00 | 69 | 1013.1 |
| 20260508013036 | 7 | 262 | 0.0 | 0.0 | 0.00 | 0.00 | 0.00 | 65 | 1012.9 |
| 20260508011536 | 8 | 262 | 0.0 | 0.0 | 0.00 | 0.00 | 0.00 | 61 | 1012.9 |
| 20260508010035 | 9 | 262 | 0.0 | 0.0 | 0.00 | 0.00 | 0.00 | 57 | 1012.8 |
| 20260508004534 | 10 | 290 | 0.0 | 0.0 | 0.00 | 0.00 | 0.00 | 52 | 1012.8 |
| 20260508003034 | 10 | 264 | 0.0 | 0.0 | 0.00 | 0.00 | 0.00 | 51 | 1012.7 |
| 20260508001533 | 10 | 254 | 0.0 | 0.0 | 0.00 | 0.00 | 0.00 | 49 | 1012.4 |
| 20260508000032 | 11 | 314 | 0.0 | 0.0 | 0.00 | 0.00 | 0.00 | 48 | 1012.3 |
| 20260507234537 | 11 | 259 | 0.0 | 0.0 | 0.00 | 0.00 | 0.00 | 47 | 1012.3 |
| 20260507233031 | 11 | 273 | 0.0 | 0.0 | 0.00 | 0.00 | 0.00 | 46 | 1012.2 |
| 20260507231530 | 12 | 319 | 0.0 | 0.0 | 0.00 | 0.00 | 0.00 | 47 | 1012.1 |
| 20260507230030 | 12 | 316 | 0.0 | 0.0 | 0.00 | 0.00 | 0.00 | 47 | 1012.2 |
| 20260507224529 | 12 | 296 | 0.0 | 0.0 | 0.00 | 0.00 | 0.00 | 47 | 1012.1 |
| 20260507223028 | 12 | 281 | 0.0 | 0.0 | 0.00 | 0.00 | 0.00 | 50 | 1012.1 |
| 20260507221527 | 12 | 312 | 0.0 | 0.0 | 0.00 | 0.00 | 0.00 | 55 | 1012.1 |
| 20260507220026 | 11 | 302 | 0.0 | 0.0 | 0.00 | 0.00 | 0.00 | 54 | 1012.2 |
| 20260507214525 | 11 | 310 | 0.0 | 0.0 | 0.00 | 0.00 | 0.00 | 58 | 1012.0 |
| 20260507213028 | 11 | 264 | 0.0 | 0.0 | 0.00 | 0.00 | 0.00 | 56 | 1011.9 |
| 20260507211524 | 12 | 310 | 0.0 | 0.0 | 0.00 | 0.00 | 0.00 | 55 | 1011.6 |
| 20260507210023 | 12 | 296 | 0.0 | 0.0 | 0.00 | 0.00 | 0.00 | 54 | 1011.5 |
| 20260507204523 | 12 | 308 | 0.0 | 0.0 | 0.00 | 0.00 | 0.00 | 53 | 1011.3 |
| 20260507203020 | 13 | 325 | 0.0 | 0.0 | 0.00 | 0.00 | 0.00 | 52 | 1011.3 |
| 20260507201521 | 12 | 11 | 0.0 | 0.0 | 0.00 | 0.00 | 0.00 | 49 | 1011.2 |
| 20260507200019 | 13 | 258 | 0.0 | 0.0 | 0.00 | 0.00 | 0.00 | 49 | 1011.3 |
| 20260507194522 | 13 | 318 | 0.0 | 0.0 | 0.00 | 0.00 | 0.00 | 47 | 1011.3 |
| 20260507193024 | 13 | 312 | 0.0 | 0.0 | 0.00 | 0.00 | 0.00 | 48 | 1011.4 |
| 20260507191518 | 13 | 333 | 0.0 | 0.0 | 0.00 | 0.00 | 0.00 | 51 | 1011.5 |
| 20260507190016 | 13 | 308 | 0.0 | 0.0 | 0.00 | 0.00 | 0.00 | 53 | 1011.4 |
| 20260507184515 | 13 | 333 | 0.0 | 0.0 | 0.00 | 0.00 | 0.00 | 48 | 1011.5 |
| 20260507183023 | 13 | 278 | 0.0 | 0.0 | 0.00 | 0.00 | 0.00 | 49 | 1011.5 |
| 20260507181513 | 13 | 15 | 0.0 | 0.0 | 0.00 | 0.00 | 0.00 | 49 | 1011.4 |
| 20260507180015 | 13 | 1 | 0.0 | 0.0 | 0.00 | 0.00 | 0.00 | 52 | 1011.4 |
| 20260507174513 | 13 | 293 | 0.0 | 0.0 | 0.00 | 0.00 | 0.00 | 50 | 1011.3 |
| 20260507173009 | 13 | 349 | 0.0 | 0.0 | 0.00 | 0.00 | 0.00 | 51 | 1011.5 |
| 20260507171509 | 13 | 252 | 0.0 | 0.0 | 0.00 | 0.00 | 0.00 | 49 | 1011.5 |
| 20260507170007 | 13 | 313 | 0.0 | 0.0 | 0.00 | 0.00 | 0.00 | 48 | 1011.7 |
| 20260507164508 | 13 | 275 | 0.0 | 0.0 | 0.00 | 0.00 | 0.00 | 47 | 1011.8 |
| 20260507163004 | 13 | 307 | 0.0 | 0.0 | 0.00 | 0.00 | 0.00 | 45 | 1011.8 |
| 20260507161608 | 13 | 325 | 0.0 | 0.0 | 0.00 | 0.00 | 0.00 | 47 | 1011.9 |
| 20260507160100 | 13 | 176 | 0.0 | 0.0 | 0.00 | 0.00 | 0.00 | 48 | 1012.0 |
| 20260507154554 | 12 | 259 | 0.0 | 0.0 | 0.00 | 0.00 | 0.00 | 48 | 1012.1 |
| 20260507153053 | 12 | 263 | 0.0 | 0.0 | 0.00 | 0.00 | 0.00 | 51 | 1012.3 |
| 20260507151550 | 12 | 271 | 0.0 | 0.0 | 0.00 | 0.00 | 0.00 | 49 | 1012.4 |
| 20260507150049 | 13 | 273 | 0.0 | 0.0 | 0.00 | 0.00 | 0.00 | 50 | 1012.4 |
| 20260507144543 | 12 | 32 | 0.0 | 0.0 | 0.00 | 0.00 | 0.00 | 50 | 1012.5 |
| 20260507143056 | 12 | 299 | 0.0 | 0.0 | 0.00 | 0.00 | 0.00 | 52 | 1012.6 |
| 20260507141553 | 12 | 276 | 0.0 | 0.0 | 0.00 | 0.00 | 0.00 | 48 | 1012.7 |
| 20260507140034 | 11 | 314 | 0.0 | 0.0 | 0.00 | 0.00 | 0.00 | 57 | 1013.0 |
| 20260507134529 | 11 | 304 | 0.0 | 0.0 | 0.00 | 0.00 | 0.00 | 62 | 1013.1 |
| 20260507133027 | 10 | 270 | 0.0 | 0.0 | 0.00 | 0.00 | 0.00 | 63 | 1013.3 |
| 20260507131523 | 10 | 266 | 0.0 | 0.0 | 0.00 | 0.00 | 0.00 | 68 | 1013.2 |
| 20260507130034 | 10 | 91 | 0.0 | 0.0 | 0.00 | 0.00 | 0.00 | 75 | 1013.2 |
| 20260507124516 | 7 | 48 | 0.0 | 0.0 | 0.00 | 0.00 | 0.00 | 84 | 1013.3 |
| 20260507123014 | 7 | 214 | 0.0 | 0.0 | 0.00 | 0.00 | 0.00 | 88 | 1013.2 |
| 20260507121509 | 6 | 219 | 0.0 | 0.0 | 0.00 | 0.00 | 0.00 | 91 | 1013.3 |
| 20260507120006 | 5 | 153 | 0.0 | 0.0 | 0.00 | 0.00 | 0.00 | 93 | 1013.2 |
| 20260507114504 | 4 | 224 | 0.0 | 0.0 | 0.00 | 0.00 | 0.00 | 94 | 1013.3 |
| 20260507113002 | 4 | 224 | 0.0 | 0.0 | 0.00 | 0.00 | 0.00 | 95 | 1013.3 |
| 20260507111559 | 3 | 214 | 0.0 | 0.0 | 0.00 | 0.00 | 0.00 | 95 | 1013.2 |
| 20260507110057 | 3 | 212 | 0.0 | 0.0 | 0.00 | 0.00 | 0.00 | 95 | 1013.1 |
| 20260507104557 | -17 | 0.0 | 0.0 | 0.00 | 0.00 | 0.00 | 1013.1 | ||
| 20260507103046 | -17 | 0.0 | 0.0 | 0.00 | 0.00 | 0.00 | 1013.0 | ||
| 20260507101542 | -17 | 0.0 | 0.0 | 0.00 | 0.00 | 0.00 | 1013.0 | ||
| 20260507100046 | -17 | 0.0 | 0.0 | 0.00 | 0.00 | 0.00 | 1012.8 | ||
| 20260507094533 | -17 | 155 | 0.0 | 0.0 | 0.00 | 0.03 | 0.00 | 96 | 1012.9 |
| 20260507093032 | 2 | 153 | 0.0 | 0.0 | 0.00 | 0.03 | 0.00 | 95 | 1013.0 |
| 20260507091535 | 2 | 150 | 0.0 | 0.0 | 0.00 | 0.03 | 0.00 | 95 | 1013.1 |
| 20260507090029 | 2 | 150 | 0.0 | 0.0 | 0.00 | 0.03 | 0.00 | 95 | 1013.0 |
| 20260507084530 | 2 | 150 | 0.0 | 0.0 | 0.00 | 0.25 | 0.00 | 95 | 1013.0 |
| 20260507083027 | 2 | 150 | 0.0 | 0.0 | 0.00 | 0.25 | 0.00 | 95 | 1013.2 |
| 20260507081526 | 2 | 149 | 0.0 | 0.0 | 0.00 | 0.25 | 0.00 | 95 | 1013.3 |
| 20260507080025 | 2 | 150 | 0.0 | 0.0 | 0.00 | 0.25 | 0.00 | 95 | 1013.3 |
| 20260507074525 | 2 | 149 | 0.0 | 0.0 | 0.00 | 0.48 | 0.00 | 94 | 1013.2 |
| 20260507073022 | 2 | 150 | 0.0 | 0.0 | 0.00 | 0.48 | 0.00 | 94 | 1013.2 |
| 20260507071526 | 2 | 150 | 0.0 | 0.0 | 0.00 | 0.48 | 0.00 | 93 | 1013.3 |
| 20260507070016 | 3 | 150 | 0.0 | 0.0 | 0.00 | 0.48 | 0.00 | 93 | 1013.5 |
| 20260507064526 | 3 | 150 | 0.0 | 0.0 | 0.00 | 0.76 | 0.00 | 93 | 1013.5 |
| 20260507063013 | 3 | 150 | 0.0 | 0.0 | 0.00 | 0.76 | 0.00 | 92 | 1013.6 |
| 20260507061509 | 3 | 150 | 0.0 | 0.0 | 0.00 | 0.76 | 0.00 | 91 | 1013.8 |
| 20260507060005 | 4 | 150 | 0.0 | 0.0 | 0.00 | 0.84 | 0.00 | 89 | 1013.7 |
| 20260507054501 | 5 | 200 | 0.0 | 0.0 | 0.00 | 0.84 | 0.00 | 88 | 1014.0 |
| 20260507053110 | 5 | 200 | 0.0 | 0.0 | 0.00 | 0.84 | 0.00 | 88 | 1014.0 |
| 20260507051608 | 5 | 200 | 0.0 | 0.0 | 0.00 | 0.84 | 0.00 | 88 | 1014.0 |
| 20260507050056 | 5 | 200 | 0.0 | 0.0 | 0.00 | 0.84 | 0.00 | 88 | 1014.2 |
| 20260507044558 | 5 | 200 | 0.0 | 0.0 | 0.00 | 0.99 | 0.00 | 88 | 1014.2 |
| 20260507043055 | 5 | 200 | 0.0 | 0.0 | 0.00 | 0.99 | 0.00 | 87 | 1014.3 |
| 20260507041552 | 5 | 202 | 0.0 | 0.0 | 0.00 | 0.99 | 0.00 | 86 | 1014.4 |